Location: Gazon
(48.1318°N, 1.2708°W)
Time: 23:19:07
(UTC+00:00)

Cosmos 1975 - Pass Details

Date: 18 September 2020
Orbit: 540 x 562 km, 82.5° (Epoch: 25 October)

Event Time Altitude Azimuth Distance (km) Brightness Sun altitude
Rises 18:44:01 0° 182° (S) 2,742 6.3 -6.4°
Reaches altitude 10° 18:46:11 10° 179° (S) 1,851 5.4 -6.7°
Maximum altitude 18:50:14 69° 97° (E) 606 2.8 -7.4°
Drops below altitude 10° 18:54:19 10° 14° (NNE) 1,862 5.5 -8.1°
Sets 18:56:30 0° 12° (NNE) 2,761 6.4 -8.4°
